Regional Weather Roundup
Issued by NWS

Home | Current Version | Previous Version | Text Only | Print | Product List | Glossary Off
Versions: 1 2 3 4 5 6 7 8 9 10 11 12 13 14 15 16 17 18 19 20 21 22 23 24 25 26 27 28 29 30 31 32 33 34 35 36 37 38 39 40 41 42 43 44 45 46 47 48 49 50

000
ASUS43 KLMK 301502
RWRKY
KENTUCKY REGIONAL WEATHER ROUNDUP
NATIONAL WEATHER SERVICE LOUISVILLE KY
1100 AM EDT MON MAY 30 2016

NOTE "FAIR" INDICATES FEW OR NO CLOUDS BELOW 12,000 FEET
WITH NO SIGNIFICANT WEATHER AND/OR OBSTRUCTIONS TO VISIBILITY.

KYZ001>023-026-027-061>063-070>075-301600-
WESTERN AND SOUTH CENTRAL KENTUCKY

CITY           SKY/WX    TMP DP  RH WIND       PRES   REMARKS
PADUCAH        SUNNY     82  63  52 E5        30.07F
HENDERSON      SUNNY     79  61  53 E6        30.07F
OWENSBORO      SUNNY     81  61  50 N6        30.08F
HOPKINSVILLE   NOT AVBL
BOWLING GREEN  SUNNY     82  64  54 NE7       30.07S
GLASGOW        NOT AVBL
$$

KYZ024-025-028>034-038-045-046-053-301600-
NORTH CENTRAL KENTUCKY

CITY           SKY/WX    TMP DP  RH WIND       PRES   REMARKS
LOUISVILLE/SDF MOSUNNY   82  59  45 N5        30.06S
LOUISVILLE/LOU SUNNY     80  61  52 NW6       30.07R
FORT KNOX      SUNNY     79  61  54 N6        30.05F
$$

KYZ035>037-039>044-047>052-055>060-089>105-301600-
NORTHEAST KENTUCKY

CITY           SKY/WX    TMP DP  RH WIND       PRES   REMARKS
LEXINGTON      SUNNY     79  64  60 VRB3      30.07S
COVINGTON      PTSUNNY   79  60  52 NW9       30.06S
FRANKFORT      SUNNY     81  64  56 CALM      30.06R
$$

KYZ054-064>069-076>088-106>120-301600-
SOUTHEAST KENTUCKY

CITY           SKY/WX    TMP DP  RH WIND       PRES   REMARKS
JACKSON        SUNNY     75  64  68 NW6       30.08R
LONDON         SUNNY     77  66  68 W3        30.07S
SOMERSET       NOT AVBL
MIDDLESBORO    SUNNY     75  67  76 CALM      30.07F
MONTICELLO     SUNNY     79  67  66 VRB3      30.08F
$$




USA.gov is the U.S. government's official web portal to all federal, state and local government web resources and services.